Time,TemperatureF,DewpointF,PressureIn,WindDirection,WindDirectionDegrees,WindSpeedMPH,WindSpeedGustMPH,Humidity,HourlyPrecipIn,Conditions,Clouds,dailyrainin,SoftwareType,DateUTC
2013-07-08 00:06:00,86.0,28.0,29.75,North,5,11.0,12.0,12,0.00,,,0.00,weatherlink.com 1.10,2013-07-08 07:06:00,
2013-07-08 00:21:00,85.8,30.0,29.75,NW,315,9.0,13.0,13,0.00,,,0.00,weatherlink.com 1.10,2013-07-08 07:21:00,
2013-07-08 00:36:00,85.7,29.0,29.75,NNE,13,12.0,15.0,13,0.00,,,0.00,weatherlink.com 1.10,2013-07-08 07:36:00,
2013-07-08 00:51:00,84.8,29.0,29.76,North,9,6.0,12.0,13,0.00,,,0.00,weatherlink.com 1.10,2013-07-08 07:51:00,
2013-07-08 01:06:00,85.2,25.0,29.76,NNE,19,8.0,11.0,11,0.00,,,0.00,weatherlink.com 1.10,2013-07-08 08:06:00,
2013-07-08 01:21:00,84.8,27.0,29.76,NNE,24,6.0,9.0,12,0.00,,,0.00,weatherlink.com 1.10,2013-07-08 08:21:00,
2013-07-08 01:36:00,84.7,27.0,29.76,NNE,26,4.0,5.0,12,0.00,,,0.00,weatherlink.com 1.10,2013-07-08 08:36:00,
2013-07-08 01:51:00,82.7,34.0,29.77,ENE,66,1.0,2.0,17,0.00,,,0.00,weatherlink.com 1.10,2013-07-08 08:51:00,
2013-07-08 02:06:00,82.5,35.0,29.77,NNE,22,4.0,5.0,18,0.00,,,0.00,weatherlink.com 1.10,2013-07-08 09:06:00,
2013-07-08 02:21:00,82.1,33.0,29.77,North,355,2.0,3.0,17,0.00,,,0.00,weatherlink.com 1.10,2013-07-08 09:21:00,
2013-07-08 02:37:00,81.4,34.0,29.77,SSE,155,3.0,3.0,18,0.00,,,0.00,weatherlink.com 1.10,2013-07-08 09:37:00,
2013-07-08 02:52:00,80.7,36.0,29.77,South,175,1.0,3.0,20,0.00,,,0.00,weatherlink.com 1.10,2013-07-08 09:52:00,
2013-07-08 03:07:00,78.9,38.0,29.78,SSE,161,3.0,5.0,23,0.00,,,0.00,weatherlink.com 1.10,2013-07-08 10:07:00,
2013-07-08 03:22:00,77.8,40.0,29.78,SE,134,4.0,6.0,26,0.00,,,0.00,weatherlink.com 1.10,2013-07-08 10:22:00,
2013-07-08 03:37:00,78.0,39.0,29.78,SSE,167,1.0,5.0,25,0.00,,,0.00,weatherlink.com 1.10,2013-07-08 10:37:00,
2013-07-08 03:52:00,77.1,40.0,29.78,SSE,167,1.0,3.0,26,0.00,,,0.00,weatherlink.com 1.10,2013-07-08 10:52:00,
2013-07-08 04:07:00,76.4,40.0,29.79,South,180,2.0,3.0,27,0.00,,,0.00,weatherlink.com 1.10,2013-07-08 11:07:00,
2013-07-08 04:22:00,75.5,41.0,29.79,SSE,163,2.0,4.0,29,0.00,,,0.00,weatherlink.com 1.10,2013-07-08 11:22:00,
2013-07-08 04:37:00,74.0,41.0,29.80,SSE,165,2.0,6.0,31,0.00,,,0.00,weatherlink.com 1.10,2013-07-08 11:37:00,
2013-07-08 04:52:00,72.9,41.0,29.80,South,177,3.0,6.0,32,0.00,,,0.00,weatherlink.com 1.10,2013-07-08 11:52:00,
2013-07-08 05:07:00,71.6,42.0,29.81,South,185,2.0,4.0,35,0.00,,,0.00,weatherlink.com 1.10,2013-07-08 12:07:00,
2013-07-08 05:22:00,71.0,40.0,29.81,SE,136,2.0,4.0,33,0.00,,,0.00,weatherlink.com 1.10,2013-07-08 12:22:00,
2013-07-08 05:37:00,71.0,39.0,29.81,ESE,118,2.0,6.0,31,0.00,,,0.00,weatherlink.com 1.10,2013-07-08 12:37:00,
2013-07-08 05:52:00,70.5,37.0,29.81,East,88,2.0,7.0,29,0.00,,,0.00,weatherlink.com 1.10,2013-07-08 12:52:00,
2013-07-08 06:07:00,70.9,35.0,29.82,SSE,163,3.0,6.0,27,0.00,,,0.00,weatherlink.com 1.10,2013-07-08 13:07:00,
2013-07-08 06:22:00,71.6,36.0,29.82,SSE,150,3.0,6.0,27,0.00,,,0.00,weatherlink.com 1.10,2013-07-08 13:22:00,
2013-07-08 06:37:00,72.1,35.0,29.83,SSE,165,3.0,4.0,26,0.00,,,0.00,weatherlink.com 1.10,2013-07-08 13:37:00,
2013-07-08 06:52:00,72.9,36.0,29.83,SSE,163,2.0,3.0,26,0.00,,,0.00,weatherlink.com 1.10,2013-07-08 13:52:00,
2013-07-08 07:07:00,74.3,36.0,29.84,SSE,159,1.0,3.0,25,0.00,,,0.00,weatherlink.com 1.10,2013-07-08 14:07:00,
2013-07-08 07:22:00,76.1,35.0,29.84,SSE,160,0.0,3.0,22,0.00,,,0.00,weatherlink.com 1.10,2013-07-08 14:22:00,
2013-07-08 07:37:00,78.4,33.0,29.85,SSE,160,1.0,2.0,19,0.00,,,0.00,weatherlink.com 1.10,2013-07-08 14:37:00,
2013-07-08 07:52:00,79.8,33.0,29.85,SSE,160,1.0,2.0,18,0.00,,,0.00,weatherlink.com 1.10,2013-07-08 14:52:00,
2013-07-08 08:07:00,80.8,31.0,29.85,South,174,3.0,4.0,16,0.00,,,0.00,weatherlink.com 1.10,2013-07-08 15:07:00,
2013-07-08 08:22:00,82.0,30.0,29.85,South,186,2.0,5.0,15,0.00,,,0.00,weatherlink.com 1.10,2013-07-08 15:22:00,
2013-07-08 08:37:00,83.0,29.0,29.86,South,173,3.0,4.0,14,0.00,,,0.00,weatherlink.com 1.10,2013-07-08 15:37:00,
2013-07-08 08:52:00,84.2,28.0,29.86,SW,221,1.0,5.0,13,0.00,,,0.00,weatherlink.com 1.10,2013-07-08 15:52:00,
2013-07-08 09:07:00,85.5,31.0,29.86,SW,217,4.0,4.0,14,0.00,,,0.00,weatherlink.com 1.10,2013-07-08 16:07:00,
2013-07-08 09:22:00,85.8,31.0,29.86,South,173,2.0,6.0,14,0.00,,,0.00,weatherlink.com 1.10,2013-07-08 16:22:00,
2013-07-08 09:37:00,86.6,30.0,29.86,SSW,208,3.0,7.0,13,0.00,,,0.00,weatherlink.com 1.10,2013-07-08 16:37:00,
2013-07-08 09:53:00,87.8,31.0,29.86,SSE,165,2.0,5.0,13,0.00,,,0.00,weatherlink.com 1.10,2013-07-08 16:53:00,
2013-07-08 10:08:00,88.3,32.0,29.86,South,186,1.0,5.0,13,0.00,,,0.00,weatherlink.com 1.10,2013-07-08 17:08:00,
2013-07-08 10:23:00,88.8,34.0,29.86,SSW,198,1.0,6.0,14,0.00,,,0.00,weatherlink.com 1.10,2013-07-08 17:23:00,
2013-07-08 10:38:00,90.8,34.0,29.86,South,188,0.0,5.0,13,0.00,,,0.00,weatherlink.com 1.10,2013-07-08 17:38:00,
2013-07-08 10:53:00,90.9,34.0,29.86,WSW,248,3.0,7.0,13,0.00,,,0.00,weatherlink.com 1.10,2013-07-08 17:53:00,
2013-07-08 11:08:00,92.4,35.0,29.85,South,191,5.0,5.0,13,0.00,,,0.00,weatherlink.com 1.10,2013-07-08 18:08:00,
2013-07-08 11:23:00,93.3,36.0,29.85,SW,229,3.0,4.0,13,0.00,,,0.00,weatherlink.com 1.10,2013-07-08 18:23:00,
2013-07-08 11:38:00,94.5,37.0,29.85,SSW,199,4.0,6.0,13,0.00,,,0.00,weatherlink.com 1.10,2013-07-08 18:38:00,
2013-07-08 12:23:00,96.0,41.0,29.84,SW,227,3.0,9.0,15,0.00,,,0.00,weatherlink.com 1.10,2013-07-08 19:23:00,
2013-07-08 13:08:00,98.6,42.0,29.83,WSW,238,0.0,8.0,14,0.00,,,0.00,weatherlink.com 1.10,2013-07-08 20:08:00,
2013-07-08 14:23:00,101.8,49.0,29.82,WSW,256,4.0,10.0,17,0.00,,,0.00,weatherlink.com 1.10,2013-07-08 21:23:00,
2013-07-08 14:53:00,103.6,46.0,29.81,West,267,6.0,15.0,14,0.00,,,0.00,weatherlink.com 1.10,2013-07-08 21:53:00,
2013-07-08 15:08:00,103.4,44.0,29.80,WNW,303,3.0,12.0,13,0.00,,,0.00,weatherlink.com 1.10,2013-07-08 22:08:00,
2013-07-08 15:38:00,104.2,42.0,29.80,NNW,339,5.0,11.0,12,0.00,,,0.00,weatherlink.com 1.10,2013-07-08 22:38:00,
2013-07-08 16:23:00,104.9,41.0,29.79,WNW,300,5.0,10.0,11,0.00,,,0.00,weatherlink.com 1.10,2013-07-08 23:23:00,
2013-07-08 17:53:00,104.3,32.0,29.77,NNE,12,6.0,11.0,8,0.00,,,0.00,weatherlink.com 1.10,2013-07-09 00:53:00,
2013-07-08 18:08:00,103.9,32.0,29.77,NW,310,10.0,13.0,8,0.00,,,0.00,weatherlink.com 1.10,2013-07-09 01:08:00,
2013-07-08 18:38:00,103.8,32.0,29.78,NW,304,9.0,14.0,8,0.00,,,0.00,weatherlink.com 1.10,2013-07-09 01:38:00,
2013-07-08 18:54:00,103.1,34.0,29.78,NW,316,6.0,13.0,9,0.00,,,0.00,weatherlink.com 1.10,2013-07-09 01:54:00,
2013-07-08 19:23:00,101.9,33.0,29.79,NW,313,6.0,11.0,9,0.00,,,0.00,weatherlink.com 1.10,2013-07-09 02:23:00,
2013-07-08 19:38:00,100.9,32.0,29.79,NW,321,6.0,11.0,9,0.00,,,0.00,weatherlink.com 1.10,2013-07-09 02:38:00,
2013-07-08 19:53:00,99.7,34.0,29.79,NW,319,5.0,8.0,10,0.00,,,0.00,weatherlink.com 1.10,2013-07-09 02:53:00,
2013-07-08 20:08:00,98.2,33.0,29.79,NW,317,4.0,6.0,10,0.00,,,0.00,weatherlink.com 1.10,2013-07-09 03:08:00,
2013-07-08 20:38:00,95.2,33.0,29.80,NNW,340,1.0,4.0,11,0.00,,,0.00,weatherlink.com 1.10,2013-07-09 03:38:00,
2013-07-08 20:54:00,94.6,32.0,29.81,North,350,2.0,4.0,11,0.00,,,0.00,weatherlink.com 1.10,2013-07-09 03:54:00,
2013-07-08 21:09:00,92.7,37.0,29.81,North,355,5.0,5.0,14,0.00,,,0.00,weatherlink.com 1.10,2013-07-09 04:09:00,
2013-07-08 21:23:00,92.9,39.0,29.82,North,355,4.0,5.0,15,0.00,,,0.00,weatherlink.com 1.10,2013-07-09 04:23:00,
2013-07-08 21:39:00,91.3,41.0,29.84,NW,304,5.0,7.0,17,0.00,,,0.00,weatherlink.com 1.10,2013-07-09 04:39:00,
2013-07-08 21:54:00,91.6,44.0,29.84,NNW,327,3.0,6.0,19,0.00,,,0.00,weatherlink.com 1.10,2013-07-09 04:54:00,
2013-07-08 22:09:00,90.9,42.0,29.84,NW,311,2.0,5.0,18,0.00,,,0.00,weatherlink.com 1.10,2013-07-09 05:09:00,
2013-07-08 22:24:00,89.3,39.0,29.85,NW,319,4.0,6.0,17,0.00,,,0.00,weatherlink.com 1.10,2013-07-09 05:24:00,
2013-07-08 22:39:00,89.8,35.0,29.85,NNW,330,4.0,7.0,14,0.00,,,0.00,weatherlink.com 1.10,2013-07-09 05:39:00,
2013-07-08 22:54:00,89.0,32.0,29.86,NNW,340,4.0,7.0,13,0.00,,,0.00,weatherlink.com 1.10,2013-07-09 05:54:00,
2013-07-08 23:09:00,88.2,31.0,29.86,North,360,2.0,5.0,13,0.00,,,0.00,weatherlink.com 1.10,2013-07-09 06:09:00,
2013-07-08 23:24:00,87.0,30.0,29.87,NNE,17,0.0,5.0,13,0.00,,,0.00,weatherlink.com 1.10,2013-07-09 06:24:00,
2013-07-08 23:39:00,85.7,39.0,29.87,NNE,18,1.0,3.0,19,0.00,,,0.00,weatherlink.com 1.10,2013-07-09 06:39:00,
2013-07-08 23:54:00,85.8,42.0,29.87,NNE,26,2.0,4.0,21,0.00,,,0.00,weatherlink.com 1.10,2013-07-09 06:54:00,